N4QCZ Weather Reports


time (UTC)temp
C
wind
direction
speed
KPH
gust
KPH
rain 1hr
cm
rain 24hr
cm
rain mn
cm
humidity
%
barometer
mb
20260506214541 30 121 0.0 14.5 0.00 0.00 0.00 52 1015.2
20260506213045 30 138 1.6 8.0 0.00 0.00 0.00 53 1015.2
20260506211545 30 111 1.6 14.5 0.00 0.00 0.00 54 1015.4
20260506210045 31 0 0.0 9.7 0.00 0.00 0.00 56 1015.2
20260506204535 31 327 0.0 11.3 0.00 0.00 0.00 55 1015.2
20260506203042 31 122 3.2 16.1 0.00 0.00 0.00 52 1015.3
20260506201541 32 121 1.6 9.7 0.00 0.00 0.00 50 1015.6
20260506200042 32 189 1.6 8.0 0.00 0.00 0.00 51 1015.8
20260506194535 32 319 0.0 6.4 0.00 0.00 0.00 51 1015.8
20260506193046 31 160 1.6 9.7 0.00 0.00 0.00 51 1015.9
20260506191539 31 336 0.0 11.3 0.00 0.00 0.00 52 1016.0
20260506190038 31 115 3.2 14.5 0.00 0.00 0.00 52 1016.1
20260506184539 31 300 1.6 12.9 0.00 0.00 0.00 54 1016.4
20260506183035 31 325 3.2 16.1 0.00 0.00 0.00 54 1016.6
20260506181555 31 57 1.6 11.3 0.00 0.00 0.00 57 1016.7
20260506180041 30 152 1.6 16.1 0.00 0.00 0.00 57 1016.7
20260506174540 30 159 4.8 12.9 0.00 0.00 0.00 56 1016.9
20260506173102 30 123 1.6 11.3 0.00 0.00 0.00 60 1017.2
20260506171545 30 26 1.6 11.3 0.00 0.00 0.00 60 1017.4
20260506170056 30 328 0.0 6.4 0.00 0.00 0.00 58 1017.6
20260506164540 29 154 1.6 6.4 0.00 0.00 0.00 60 1017.6
20260506163051 28 0 1.6 8.0 0.00 0.00 0.00 59 1017.7
20260506161539 28 355 1.6 9.7 0.00 0.00 0.00 64 1017.8
20260506160045 28 192 1.6 14.5 0.00 0.00 0.00 64 1017.8
20260506154604 27 53 3.2 16.1 0.00 0.00 0.00 66 1017.9
20260506153037 27 0 1.6 8.0 0.00 0.00 0.00 68 1017.7
20260506151537 26 296 3.2 16.1 0.00 0.00 0.00 72 1017.6
20260506150037 25 97 1.6 8.0 0.00 0.00 0.00 72 1017.5
20260506144550 25 189 1.6 9.7 0.00 0.00 0.00 73 1017.5
20260506143041 25 188 3.2 9.7 0.00 0.00 0.00 75 1017.3
20260506141541 23 0 4.8 16.1 0.00 0.00 0.00 75 1017.1
20260506140040 23 146 3.2 9.7 0.00 0.00 0.00 77 1017.2
20260506134535 23 291 3.2 9.7 0.00 0.00 0.00 77 1017.0
20260506133045 22 145 1.6 8.0 0.00 0.00 0.00 79 1016.9
20260506131542 22 170 3.2 9.7 0.00 0.00 0.00 80 1016.7
20260506130041 21 141 0.0 6.4 0.00 0.00 0.00 83 1016.6
20260506124539 20 0 0.0 4.8 0.00 0.00 0.00 85 1016.7
20260506123036 19 229 1.6 4.8 0.00 0.00 0.00 88 1016.5
20260506121535 18 0 0.0 1.6 0.00 0.00 0.00 92 1016.5
20260506120043 17 0 0.0 0.0 0.00 0.00 0.00 93 1016.2
20260506114546 17 0 0.0 0.0 0.00 0.00 0.00 94 1016.1
20260506113040 17 0 0.0 1.6 0.00 0.00 0.00 93 1015.7
20260506111539 16 0 0.0 0.0 0.00 0.00 0.00 93 1015.7
20260506110046 16 0 0.0 1.6 0.00 0.00 0.00 93 1015.6
20260506104607 16 0 0.0 1.6 0.00 0.00 0.00 92 1015.4
20260506103042 16 0 0.0 0.0 0.00 0.00 0.00 92 1015.3
20260506101542 16 0 0.0 0.0 0.00 0.00 0.00 91 1015.4
20260506100044 17 0 0.0 0.0 0.00 0.00 0.00 92 1015.5
20260506094538 17 0 0.0 0.0 0.00 0.03 0.00 91 1015.7
20260506093035 17 0 0.0 0.0 0.00 0.03 0.00 92 1015.5
20260506091539 17 0 0.0 0.0 0.00 0.03 0.00 92 1015.4
20260506090044 17 0 0.0 0.0 0.00 0.03 0.00 92 1015.3
20260506084540 17 0 0.0 0.0 0.00 0.03 0.00 91 1015.3
20260506083043 17 0 0.0 0.0 0.00 0.03 0.00 90 1015.6
20260506081537 17 0 0.0 0.0 0.00 0.03 0.00 91 1015.9
20260506073041 17 0 0.0 0.0 0.00 0.03 0.00 89 1015.6
20260506071540 17 0 0.0 0.0 0.00 0.03 0.00 89 1015.7
20260506061540 18 0 0.0 0.0 0.00 0.03 0.00 86 1016.0
20260506044540 19 0 0.0 1.6 0.00 0.03 0.00 81 1016.3
20260506043046 19 0 0.0 1.6 0.00 0.03 0.00 80 1016.5
20260506041538 19 0 0.0 1.6 0.00 0.03 0.00 79 1016.3
20260506040049 19 0 0.0 1.6 0.00 0.03 0.00 78 1016.4
20260506034540 20 0 0.0 0.0 0.00 0.03 0.03 77 1016.5
20260506033039 20 0 0.0 0.0 0.00 0.03 0.03 75 1016.6
20260506031536 20 0 0.0 0.0 0.00 0.03 0.03 75 1016.6
20260506030035 21 0 0.0 0.0 0.00 0.03 0.03 73 1016.5
20260506024544 21 0 0.0 0.0 0.00 0.03 0.03 72 1016.3
20260506023040 21 0 0.0 0.0 0.00 0.03 0.03 71 1016.2
20260506021549 21 0 0.0 0.0 0.00 0.03 0.03 70 1016.0
20260506020034 22 0 0.0 0.0 0.00 0.03 0.03 69 1015.8
20260506014559 22 0 0.0 0.0 0.00 0.03 0.03 67 1015.6
20260506013041 22 0 0.0 0.0 0.00 0.03 0.03 66 1015.6
20260506011540 23 0 0.0 3.2 0.00 0.03 0.03 65 1015.5
20260506010046 23 171 0.0 1.6 0.00 0.03 0.03 62 1015.3
20260506004534 24 0 0.0 4.8 0.00 0.03 0.03 61 1015.1
20260506003040 24 0 0.0 1.6 0.00 0.03 0.03 59 1014.7
20260506001536 25 0 0.0 1.6 0.00 0.03 0.03 58 1014.9
20260506000038 25 0 0.0 4.8 0.00 0.03 0.03 56 1014.7
20260505234559 26 0 0.0 3.2 0.00 0.03 0.03 56 1014.8
20260505233042 26 33 0.0 6.4 0.00 0.03 0.03 55 1014.5
20260505231537 27 0 0.0 3.2 0.00 0.03 0.03 55 1014.4
20260505230042 27 277 0.0 6.4 0.00 0.03 0.03 54 1014.5
20260505224535 27 0 0.0 4.8 0.00 0.03 0.03 53 1014.5
20260505223046 27 0 0.0 9.7 0.00 0.03 0.03 51 1014.6
20260505221541 28 275 1.6 12.9 0.00 0.03 0.03 49 1014.5
20260505220037 29 344 0.0 4.8 0.00 0.03 0.03 47 1014.5